Location: Limerick
(52.6800°N, 8.6400°W)
Time: 00:32:12
(UTC+00:00)

ISS - All Passes

Search period start: 01 March 2015 00:00
Search period end: 11 March 2015 00:00
Orbit: 397 x 408 km, 51.6° (Epoch: 28 February)

Date Brightness Start Highest point End Pass type
(mag) Time Alt. Az. Time Alt. Az. Time Alt. Az.
01 Mar - 11:19:12 10° SW 11:22:09 34° SSE 11:25:08 10° E daylight
01 Mar - 12:55:08 10° W 12:58:22 73° S 13:01:36 10° E daylight
01 Mar - 14:31:30 10° W 14:34:41 57° SSW 14:37:54 10° ESE daylight
01 Mar - 16:08:16 10° W 16:10:43 20° SSW 16:13:09 10° SSE daylight
02 Mar - 10:26:41 10° SSW 10:29:19 24° SSE 10:32:00 10° E daylight
02 Mar - 12:02:12 10° WSW 12:05:24 63° S 12:08:38 10° E daylight
02 Mar - 13:38:31 10° W 13:41:45 69° S 13:44:59 10° ESE daylight
02 Mar - 15:15:03 10° W 15:17:54 29° SSW 15:20:46 10° SE daylight
03 Mar - 09:34:29 10° S 09:36:32 16° SE 09:38:38 10° ESE daylight
03 Mar - 11:09:19 10° WSW 11:12:28 50° SSE 11:15:37 10° E daylight
03 Mar - 12:45:32 10° W 12:48:46 75° S 12:52:01 10° E daylight
03 Mar - 14:21:57 10° W 14:25:02 40° SSW 14:28:05 10° SE daylight
03 Mar - 15:59:37 10° WSW 16:00:51 12° SW 16:01:59 10° SSW daylight
04 Mar - 08:43:26 10° SE 08:43:45 10° SE 08:44:11 10° SE daylight
04 Mar - 10:16:31 10° SW 10:19:31 37° SSE 10:22:33 10° E daylight
04 Mar - 11:52:31 10° W 11:55:45 74° S 11:59:00 10° E daylight
04 Mar - 13:28:54 10° W 13:32:04 53° SSW 13:35:15 10° ESE daylight
04 Mar - 15:05:45 10° W 15:08:03 18° SW 15:10:18 10° S daylight
05 Mar - 09:23:52 10° SSW 09:26:37 26° SSE 09:29:24 10° E daylight
05 Mar - 10:59:31 10° WSW 11:02:44 66° S 11:05:57 10° E daylight
05 Mar - 12:35:51 10° W 12:39:04 66° S 12:42:17 10° ESE daylight
05 Mar - 14:12:24 10° W 14:15:11 26° SSW 14:17:56 10° SSE daylight
06 Mar - 08:31:29 10° S 08:33:44 18° SE 08:36:02 10° E daylight
06 Mar - 10:06:32 10° WSW 10:09:42 54° SSE 10:12:53 10° E daylight
06 Mar - 11:42:47 10° W 11:46:01 74° S 11:49:15 10° E daylight
06 Mar - 13:19:13 10° W 13:22:14 37° SSW 13:25:16 10° SE daylight
06 Mar - 14:57:38 10° SW 14:58:01 10° SW 14:58:18 10° SW daylight
07 Mar - 07:39:43 10° SSE 07:40:52 12° SE 07:42:06 10° ESE daylight
07 Mar - 09:13:38 10° SW 09:16:41 40° SSE 09:19:45 10° E daylight
07 Mar - 10:49:42 10° W 10:52:56 75° S 10:56:10 10° E daylight
07 Mar - 12:26:05 10° W 12:29:14 50° SSW 12:32:23 10° ESE daylight
07 Mar - 14:03:04 10° WSW 14:05:10 16° SW 14:07:13 10° S daylight
08 Mar - 08:20:51 10° SW 08:23:41 29° SSE 08:26:33 10° E daylight
08 Mar - 09:56:37 10° WSW 09:59:50 69° S 10:03:04 10° E daylight
08 Mar - 11:32:57 10° W 11:36:10 63° SSW 11:39:22 10° ESE daylight
08 Mar - 13:09:34 10° W 13:12:14 24° SSW 13:14:53 10° SSE daylight
09 Mar - 07:28:18 10° SSW 07:30:43 20° SSE 07:33:10 10° E daylight
09 Mar - 09:03:32 10° WSW 09:06:43 57° SSE 09:09:55 10° E daylight
09 Mar - 10:39:49 10° W 10:43:03 73° S 10:46:17 10° E daylight
09 Mar - 12:16:16 10° W 12:19:14 34° SSW 12:22:12 10° SE daylight
10 Mar - 06:36:13 10° S 06:37:47 13° SE 06:39:24 10° ESE daylight
10 Mar - 08:10:32 10° SW 08:13:38 43° SSE 08:16:44 10° E daylight
10 Mar - 09:46:39 10° W 09:49:54 75° S 09:53:08 10° E daylight
10 Mar - 11:23:02 10° W 11:26:10 46° SSW 11:29:17 10° SE daylight
10 Mar - 13:00:12 10° WSW 13:02:03 14° SW 13:03:52 10° S daylight
